Rock Falls, IL

10:42 PM CDT on September 25, 2016 (GMT -0500)
Whiteside County-Bittorf

Weather History for KSQI - November, 2011

Change the Weather History Date:

Sunday, November 20, 2011

  Actual Average Record
Temperature  
Mean Temperature 40 °F -  
Max Temperature 42 °F 44 °F 68 °F (2003)
Min Temperature 37 °F 27 °F 10 °F (2014)
Degree Days  
Heating Degree Days 26    
Moisture  
Dew Point 31 °F    
Average Humidity 70    
Maximum Humidity 81    
Minimum Humidity 61    
Precipitation  
Precipitation 0.00 in - - ()
Sea Level Pressure  
Sea Level Pressure 30.22 in    
Wind  
Wind Speed 11 mph (North)    
Max Wind Speed 17 mph    
Max Gust Speed 22 mph    
Visibility 10 miles    
Events      
Averages and records for this station are not official NWS values.
T = Trace of Precipitation, MM = Missing Value Source: NWS Daily Summary

Daily Weather History Graph

Daily Weather History Graph

Search for Another Location

Airport or City:

Trip Planner

Search our weather history database for the weather conditions in past years. The results will help you decide how hot, cold, wet, or windy it might be!

Date:

Astronomy

Nov. 20, 2011 Rise Set
Actual Time 6:53 AM CST 4:34 PM CST
Civil Twilight 6:23 AM CST 5:04 PM CST
Nautical Twilight 5:49 AM CST 5:38 PM CST
Astronomical Twilight 5:16 AM CST 6:11 PM CST
Moon 1:17 AM CST (11/20) 1:27 PM CST (11/20)
Length of Visible Light 10h 41m
Length of Day
9h 40m
Waning Crescent, 27% of the Moon is Illuminated
Nov 20
Waning Crescent
Nov 25
New
Dec 2
First Quarter
Dec 10
Full
Dec 17
Last Quarter

Hourly Weather History & Observations

Time (CST) Temp. Windchill Dew Point Humidity Pressure Visibility Wind Dir Wind Speed Gust Speed Precip Events Conditions
12:15 AM 42.8 °F 34.8 °F 33.8 °F 70% 29.98 in 10.0 mi West 17.3 mph - N/A   Overcast
12:35 AM 42.8 °F 35.1 °F 33.8 °F 70% 30.00 in 10.0 mi West 16.1 mph - N/A   Overcast
12:55 AM 41.0 °F 32.8 °F 33.8 °F 76% 30.01 in 10.0 mi WNW 16.1 mph 21.9 mph N/A   Overcast
1:15 AM 41.0 °F 32.5 °F 33.8 °F 76% 30.03 in 10.0 mi West 17.3 mph - N/A   Overcast
1:35 AM 39.2 °F 31.6 °F 32.0 °F 75% 30.04 in 10.0 mi West 12.7 mph - N/A   Overcast
1:55 AM 39.2 °F 31.2 °F 33.8 °F 81% 30.06 in 10.0 mi WNW 13.8 mph 19.6 mph N/A   Overcast
2:35 AM 39.2 °F 32.0 °F 32.0 °F 75% 30.08 in 10.0 mi WNW 11.5 mph - N/A   Overcast
2:55 AM 39.2 °F 33.6 °F 32.0 °F 75% 30.09 in 10.0 mi NW 8.1 mph - N/A   Overcast
3:15 AM 39.2 °F 31.6 °F 32.0 °F 75% 30.11 in 10.0 mi NNW 12.7 mph 20.7 mph N/A   Overcast
3:35 AM 39.2 °F 31.2 °F 32.0 °F 75% 30.12 in 10.0 mi NW 13.8 mph - N/A   Overcast
3:55 AM 39.2 °F 32.0 °F 32.0 °F 75% 30.12 in 10.0 mi NNW 11.5 mph - N/A   Overcast
4:15 AM 37.4 °F 28.9 °F 32.0 °F 81% 30.13 in 10.0 mi NNW 13.8 mph 18.4 mph N/A   Overcast
4:35 AM 37.4 °F 30.3 °F 30.2 °F 75% 30.14 in 10.0 mi NNW 10.4 mph - N/A   Overcast
4:55 AM 37.4 °F 30.3 °F 30.2 °F 75% 30.15 in 10.0 mi NNW 10.4 mph - N/A   Mostly Cloudy
5:15 AM 37.4 °F 31.4 °F 30.2 °F 75% 30.15 in 10.0 mi NNW 8.1 mph - N/A   Mostly Cloudy
5:55 AM 37.4 °F 32.1 °F 30.2 °F 75% 30.17 in 10.0 mi NNW 6.9 mph - N/A   Overcast
6:55 AM 37.4 °F 30.3 °F 30.2 °F 75% 30.18 in 10.0 mi North 10.4 mph - N/A   Overcast
7:15 AM 37.4 °F 30.8 °F 32.0 °F 81% 30.19 in 10.0 mi North 9.2 mph - N/A   Overcast
7:35 AM 37.4 °F 32.8 °F 30.2 °F 75% 30.21 in 10.0 mi North 5.8 mph - N/A   Overcast
7:55 AM 39.2 °F 37.0 °F 30.2 °F 70% 30.22 in 10.0 mi North 3.5 mph - N/A   Overcast
8:15 AM 39.2 °F 33.6 °F 30.2 °F 70% 30.22 in 10.0 mi North 8.1 mph - N/A   Overcast
8:35 AM 39.2 °F 35.0 °F 30.2 °F 70% 30.25 in 10.0 mi North 5.8 mph - N/A   Overcast
8:55 AM 39.2 °F 34.2 °F 30.2 °F 70% 30.27 in 10.0 mi North 6.9 mph - N/A   Overcast
9:15 AM 39.2 °F 35.9 °F 30.2 °F 70% 30.27 in 10.0 mi NNE 4.6 mph - N/A   Overcast
9:35 AM 39.2 °F 34.2 °F 30.2 °F 70% 30.27 in 10.0 mi North 6.9 mph - N/A   Overcast
9:55 AM 39.2 °F 35.0 °F 30.2 °F 70% 30.28 in 10.0 mi North 5.8 mph - N/A   Overcast
10:15 AM 39.2 °F 35.9 °F 30.2 °F 70% 30.28 in 10.0 mi North 4.6 mph - N/A   Overcast
10:55 AM 41.0 °F 35.2 °F 30.2 °F 65% 30.27 in 10.0 mi North 9.2 mph - N/A   Overcast
11:15 AM 41.0 °F 35.8 °F 30.2 °F 65% 30.28 in 10.0 mi NNE 8.1 mph - N/A   Overcast
11:35 AM 41.0 °F 38.0 °F 30.2 °F 65% 30.28 in 10.0 mi NE 4.6 mph - N/A   Overcast
12:15 PM 42.8 °F 38.0 °F 30.2 °F 61% 30.26 in 10.0 mi NNE 8.1 mph - N/A   Overcast
12:55 PM 42.8 °F 37.5 °F 30.2 °F 61% 30.26 in 10.0 mi NNE 9.2 mph - N/A   Overcast
1:15 PM 42.8 °F 37.0 °F 30.2 °F 61% 30.26 in 10.0 mi NE 10.4 mph - N/A   Overcast
1:35 PM 42.8 °F 37.5 °F 30.2 °F 61% 30.27 in 10.0 mi NE 9.2 mph - N/A   Overcast
1:55 PM 42.8 °F 38.6 °F 30.2 °F 61% 30.28 in 10.0 mi NE 6.9 mph - N/A   Overcast
2:15 PM 41.0 °F 35.8 °F 30.2 °F 65% 30.28 in 10.0 mi NNE 8.1 mph - N/A   Overcast
2:35 PM 41.0 °F 36.4 °F 30.2 °F 65% 30.28 in 10.0 mi NE 6.9 mph - N/A   Overcast
2:55 PM 41.0 °F 36.4 °F 30.2 °F 65% 30.29 in 10.0 mi NNE 6.9 mph - N/A   Overcast
3:15 PM 41.0 °F 35.8 °F 30.2 °F 65% 30.28 in 10.0 mi NE 8.1 mph - N/A   Overcast
3:35 PM 41.0 °F 35.8 °F 30.2 °F 65% 30.29 in 10.0 mi NNE 8.1 mph - N/A   Overcast
3:55 PM 39.2 °F 35.0 °F 30.2 °F 70% 30.29 in 10.0 mi NNE 5.8 mph - N/A   Mostly Cloudy
4:15 PM 39.2 °F 32.5 °F 30.2 °F 70% 30.28 in 10.0 mi NNE 10.4 mph - N/A   Overcast
4:35 PM 39.2 °F 33.6 °F 30.2 °F 70% 30.30 in 10.0 mi NNE 8.1 mph - N/A   Scattered Clouds
5:15 PM 39.2 °F 33.6 °F 30.2 °F 70% 30.30 in 10.0 mi NE 8.1 mph - N/A   Scattered Clouds
5:35 PM 39.2 °F 33.0 °F 30.2 °F 70% 30.30 in 10.0 mi NE 9.2 mph - N/A   Mostly Cloudy
5:55 PM 39.2 °F 33.6 °F 28.4 °F 65% 30.29 in 10.0 mi NE 8.1 mph - N/A   Mostly Cloudy
6:15 PM 37.4 °F 31.4 °F 28.4 °F 70% 30.29 in 10.0 mi ENE 8.1 mph - N/A   Mostly Cloudy
6:35 PM 37.4 °F 31.4 °F 28.4 °F 70% 30.29 in 10.0 mi ENE 8.1 mph - N/A   Mostly Cloudy
6:55 PM 37.4 °F 30.8 °F 28.4 °F 70% 30.29 in 10.0 mi ENE 9.2 mph - N/A   Scattered Clouds
7:55 PM 37.4 °F 31.4 °F 30.2 °F 75% 30.31 in 10.0 mi NE 8.1 mph - N/A   Overcast
8:15 PM 37.4 °F 30.8 °F 28.4 °F 70% 30.31 in 10.0 mi ENE 9.2 mph - N/A   Overcast
8:35 PM 37.4 °F 29.3 °F 28.4 °F 70% 30.32 in 10.0 mi ENE 12.7 mph - N/A   Overcast
8:55 PM 37.4 °F 29.8 °F 28.4 °F 70% 30.31 in 10.0 mi ENE 11.5 mph - N/A   Scattered Clouds
9:15 PM 37.4 °F 30.3 °F 28.4 °F 70% 30.31 in 10.0 mi ENE 10.4 mph - N/A   Clear
9:35 PM 35.6 °F 28.6 °F 28.4 °F 75% 30.31 in 10.0 mi NE 9.2 mph - N/A   Clear
9:55 PM 35.6 °F 28.6 °F 28.4 °F 75% 30.31 in 10.0 mi NE 9.2 mph - N/A   Partly Cloudy
10:15 PM 37.4 °F 31.4 °F 28.4 °F 70% 30.31 in 10.0 mi NE 8.1 mph - N/A   Scattered Clouds
10:35 PM 35.6 °F 30.7 °F 28.4 °F 75% 30.31 in 10.0 mi NE 5.8 mph - N/A   Partly Cloudy
10:55 PM 35.6 °F 29.2 °F 28.4 °F 75% 30.31 in 10.0 mi NE 8.1 mph - N/A   Mostly Cloudy
11:15 PM 35.6 °F 30.7 °F 26.6 °F 70% 30.31 in 10.0 mi NE 5.8 mph - N/A   Overcast
11:35 PM 35.6 °F 29.9 °F 26.6 °F 70% 30.31 in 10.0 mi NE 6.9 mph - N/A   Overcast
11:55 PM 35.6 °F 28.6 °F 28.4 °F 75% 30.30 in 10.0 mi ENE 9.2 mph - N/A   Mostly Cloudy